AAL63 KDCA-KCRW

Flight info

Callsign AAL63
Flight time 0h 43m
Altitude 32000
Route REBLL5 OTTTO Q68 HVQ
Aircraft MD82/M-SDFGIRWY/S

Departure

Time 2026-04-22 00:38
Airport Ronald Reagan Washington National Airport (KDCA)

Arrival

Time 2026-04-22 01:22
Airport Yeager Airport (KCRW)
Time Latitude Longitude Altitude Speed Heading
2026-04-22 00:13 38.85676 -77.04216 26 ft 0 kts 201°
2026-04-22 00:28 38.85690 -77.04210 28 ft 3 kts 200°
2026-04-22 00:28 38.85709 -77.04203 28 ft 3 kts 176°
2026-04-22 00:29 38.85728 -77.04212 27 ft 3 kts 131°
2026-04-22 00:29 38.85734 -77.04219 27 ft 2 kts 105°
2026-04-22 00:29 38.85733 -77.04219 27 ft 0 kts 105°
2026-04-22 00:33 38.85733 -77.04215 26 ft 1 kts 105°
2026-04-22 00:33 38.85730 -77.04204 26 ft 2 kts 105°
2026-04-22 00:34 38.85726 -77.04184 27 ft 3 kts 105°
2026-04-22 00:34 38.85717 -77.04149 25 ft 6 kts 111°
2026-04-22 00:34 38.85700 -77.04094 25 ft 7 kts 111°
2026-04-22 00:34 38.85693 -77.04029 26 ft 7 kts 80°
2026-04-22 00:35 38.85720 -77.03985 27 ft 6 kts 22°
2026-04-22 00:35 38.85789 -77.03982 27 ft 13 kts 356°
2026-04-22 00:35 38.85879 -77.03990 25 ft 13 kts 355°
2026-04-22 00:35 38.85969 -77.04006 25 ft 14 kts 352°
2026-04-22 00:36 38.86037 -77.04005 25 ft 9 kts 12°
2026-04-22 00:36 38.86073 -77.03982 25 ft 0 kts 41°
2026-04-22 00:36 38.86078 -77.03976 25 ft 2 kts 44°
2026-04-22 00:37 38.86090 -77.03957 24 ft 4 kts 54°
2026-04-22 00:37 38.86105 -77.03918 26 ft 6 kts 73°
2026-04-22 00:37 38.86083 -77.03873 24 ft 9 kts 159°
2026-04-22 00:37 38.85932 -77.03853 29 ft 46 kts 175°
2026-04-22 00:38 38.85371 -77.03796 24 ft 114 kts 175°
2026-04-22 00:38 38.84382 -77.03688 62 ft 165 kts 175°
2026-04-22 00:38 38.83251 -77.03607 923 ft 158 kts 177°
2026-04-22 00:38 38.82286 -77.03557 1597 ft 165 kts 179°
2026-04-22 00:39 38.81080 -77.03513 2124 ft 182 kts 181°
2026-04-22 00:39 38.79756 -77.03487 2626 ft 203 kts 181°
2026-04-22 00:39 38.78289 -77.03471 3305 ft 215 kts 182°
2026-04-22 00:39 38.76746 -77.03511 3983 ft 223 kts 193°
2026-04-22 00:40 38.75367 -77.04379 4683 ft 226 kts 229°
2026-04-22 00:40 38.74675 -77.06140 5441 ft 225 kts 261°
2026-04-22 00:40 38.74510 -77.08159 6090 ft 235 kts 267°
2026-04-22 00:40 38.74384 -77.10334 6516 ft 249 kts 268°
2026-04-22 00:41 38.74286 -77.12552 7350 ft 249 kts 270°
2026-04-22 00:41 38.74193 -77.14791 8092 ft 253 kts 271°
2026-04-22 00:41 38.74102 -77.17053 8829 ft 256 kts 272°
2026-04-22 00:41 38.74005 -77.19344 9562 ft 259 kts 272°
2026-04-22 00:42 38.73896 -77.21666 10247 ft 264 kts 273°
2026-04-22 00:42 38.73779 -77.24020 10928 ft 265 kts 273°
2026-04-22 00:42 38.73926 -77.26353 11520 ft 263 kts 288°
2026-04-22 00:42 38.74434 -77.28654 11888 ft 276 kts 291°
2026-04-22 00:43 38.75014 -77.31078 12095 ft 294 kts 291°
2026-04-22 00:43 38.75630 -77.33657 12285 ft 311 kts 290°
2026-04-22 00:43 38.76264 -77.36333 12594 ft 323 kts 290°
2026-04-22 00:43 38.76909 -77.39114 13191 ft 326 kts 290°
2026-04-22 00:44 38.77542 -77.41919 13867 ft 328 kts 289°
2026-04-22 00:44 38.77959 -77.44805 14446 ft 336 kts 276°
2026-04-22 00:44 38.77900 -77.47828 14995 ft 342 kts 271°
2026-04-22 00:44 38.77743 -77.50897 15497 ft 347 kts 271°
2026-04-22 00:45 38.77579 -77.53997 15988 ft 351 kts 271°
2026-04-22 00:45 38.77418 -77.57131 16511 ft 354 kts 271°
2026-04-22 00:45 38.77264 -77.60291 17030 ft 357 kts 271°
2026-04-22 00:45 38.77128 -77.63487 17505 ft 362 kts 271°
2026-04-22 00:46 38.77005 -77.66723 17994 ft 365 kts 271°
2026-04-22 00:46 38.76865 -77.69990 18512 ft 369 kts 269°
2026-04-22 00:46 38.76636 -77.73290 18965 ft 373 kts 268°
2026-04-22 00:46 38.76366 -77.76558 19449 ft 374 kts 268°
2026-04-22 00:47 38.76077 -77.79876 19994 ft 375 kts 267°
2026-04-22 00:47 38.75788 -77.83202 20467 ft 377 kts 267°
2026-04-22 00:47 38.75505 -77.86546 20954 ft 378 kts 268°
2026-04-22 00:47 38.75228 -77.89905 21451 ft 380 kts 268°
2026-04-22 00:48 38.74956 -77.93281 21927 ft 382 kts 268°
2026-04-22 00:48 38.74688 -77.96672 22394 ft 383 kts 268°
2026-04-22 00:48 38.74420 -78.00083 22895 ft 385 kts 268°
2026-04-22 00:48 38.74152 -78.03506 23371 ft 386 kts 267°
2026-04-22 00:49 38.73883 -78.06940 23790 ft 389 kts 267°
2026-04-22 00:49 38.73611 -78.10394 24154 ft 391 kts 267°
2026-04-22 00:49 38.73337 -78.13864 24545 ft 392 kts 267°
2026-04-22 00:49 38.73063 -78.17304 24925 ft 393 kts 267°
2026-04-22 00:50 38.72785 -78.20800 25273 ft 396 kts 267°
2026-04-22 00:50 38.72500 -78.24317 25624 ft 398 kts 267°
2026-04-22 00:50 38.72204 -78.27850 25986 ft 400 kts 267°
2026-04-22 00:50 38.71901 -78.31392 26333 ft 402 kts 267°
2026-04-22 00:51 38.71598 -78.34964 26698 ft 403 kts 267°
2026-04-22 00:51 38.71295 -78.38543 27029 ft 406 kts 267°
2026-04-22 00:51 38.70991 -78.42140 27409 ft 407 kts 267°
2026-04-22 00:51 38.70689 -78.45751 27788 ft 409 kts 267°
2026-04-22 00:52 38.70384 -78.49397 28024 ft 414 kts 267°
2026-04-22 00:52 38.69770 -78.56714 28162 ft 414 kts 267°
2026-04-22 00:53 38.69157 -78.64028 28200 ft 412 kts 267°
2026-04-22 00:53 38.68549 -78.71306 28192 ft 410 kts 267°
2026-04-22 00:54 38.67928 -78.78609 28205 ft 414 kts 266°
2026-04-22 00:54 38.67268 -78.85952 28212 ft 415 kts 266°
2026-04-22 00:55 38.66609 -78.93289 28204 ft 414 kts 266°
2026-04-22 00:55 38.65637 -79.04232 28206 ft 413 kts 267°
2026-04-22 00:56 38.64998 -79.11501 28200 ft 413 kts 266°
2026-04-22 00:56 38.64352 -79.18812 28201 ft 414 kts 266°
2026-04-22 00:57 38.63706 -79.26084 28201 ft 413 kts 266°
2026-04-22 00:57 38.63039 -79.33365 28209 ft 412 kts 266°
2026-04-22 00:58 38.62350 -79.40644 28211 ft 412 kts 266°
2026-04-22 00:58 38.61668 -79.47926 28205 ft 412 kts 266°
2026-04-22 00:59 38.60998 -79.55071 28213 ft 397 kts 266°
2026-04-22 00:59 38.60348 -79.62015 28092 ft 391 kts 266°
2026-04-22 01:00 38.60029 -79.65466 27938 ft 392 kts 266°
2026-04-22 01:00 38.59709 -79.68936 27677 ft 391 kts 266°
2026-04-22 01:00 38.59388 -79.72382 27418 ft 389 kts 266°
2026-04-22 01:00 38.59067 -79.75819 27101 ft 389 kts 266°
2026-04-22 01:01 38.58747 -79.79247 26723 ft 387 kts 266°
2026-04-22 01:01 38.58400 -79.82649 26354 ft 384 kts 265°
2026-04-22 01:01 38.58017 -79.85966 25989 ft 380 kts 265°
2026-04-22 01:01 38.57647 -79.89230 25630 ft 379 kts 265°
2026-04-22 01:02 38.57295 -79.92574 25270 ft 378 kts 266°
2026-04-22 01:02 38.57078 -79.94790 25032 ft 378 kts 266°
2026-04-22 01:02 38.56768 -79.98118 24673 ft 377 kts 266°
2026-04-22 01:02 38.56471 -80.01436 24326 ft 375 kts 266°
2026-04-22 01:03 38.56180 -80.04752 23973 ft 374 kts 267°
2026-04-22 01:03 38.55897 -80.08049 23620 ft 373 kts 267°
2026-04-22 01:03 38.55616 -80.11325 23334 ft 369 kts 266°
2026-04-22 01:03 38.55414 -80.14587 22950 ft 369 kts 272°
2026-04-22 01:04 38.55491 -80.17884 22181 ft 371 kts 276°
2026-04-22 01:04 38.55682 -80.21165 21467 ft 369 kts 276°
2026-04-22 01:04 38.55894 -80.24426 20790 ft 367 kts 276°
2026-04-22 01:04 38.56105 -80.27671 20116 ft 366 kts 276°
2026-04-22 01:05 38.56306 -80.30901 19461 ft 364 kts 276°
2026-04-22 01:05 38.56494 -80.34114 18810 ft 362 kts 275°
2026-04-22 01:05 38.56668 -80.37310 18136 ft 360 kts 275°
2026-04-22 01:05 38.56831 -80.40491 17416 ft 358 kts 275°
2026-04-22 01:06 38.56984 -80.43654 16716 ft 355 kts 275°
2026-04-22 01:06 38.57134 -80.46755 16019 ft 353 kts 275°
2026-04-22 01:06 38.57287 -80.49877 15342 ft 351 kts 275°
2026-04-22 01:06 38.57437 -80.52975 14686 ft 348 kts 275°
2026-04-22 01:07 38.57586 -80.56051 14043 ft 346 kts 275°
2026-04-22 01:07 38.57739 -80.59120 13333 ft 343 kts 275°
2026-04-22 01:07 38.57802 -80.62162 12620 ft 341 kts 268°
2026-04-22 01:07 38.57543 -80.65159 11943 ft 339 kts 263°
2026-04-22 01:08 38.57172 -80.68099 11520 ft 329 kts 262°
2026-04-22 01:08 38.56812 -80.70876 11330 ft 302 kts 263°
2026-04-22 01:08 38.56493 -80.73405 11242 ft 275 kts 264°
2026-04-22 01:08 38.56210 -80.75769 10995 ft 270 kts 264°
2026-04-22 01:09 38.55947 -80.78150 10625 ft 269 kts 265°
2026-04-22 01:09 38.55697 -80.80498 10259 ft 265 kts 265°
2026-04-22 01:09 38.55451 -80.82818 9814 ft 263 kts 265°
2026-04-22 01:09 38.55209 -80.85137 9287 ft 263 kts 264°
2026-04-22 01:10 38.54974 -80.87458 8758 ft 262 kts 264°
2026-04-22 01:10 38.54739 -80.89758 8261 ft 261 kts 263°
2026-04-22 01:10 38.54491 -80.92053 7763 ft 260 kts 262°
2026-04-22 01:10 38.54237 -80.94340 7281 ft 260 kts 262°
2026-04-22 01:11 38.53990 -80.96594 6789 ft 259 kts 261°
2026-04-22 01:11 38.53745 -80.98901 6379 ft 257 kts 260°
2026-04-22 01:11 38.53501 -81.01122 6013 ft 254 kts 260°
2026-04-22 01:11 38.53252 -81.03338 5676 ft 250 kts 260°
2026-04-22 01:12 38.53015 -81.05471 5401 ft 233 kts 260°
2026-04-22 01:12 38.52793 -81.07503 5156 ft 229 kts 260°
2026-04-22 01:12 38.52575 -81.09499 4908 ft 225 kts 259°
2026-04-22 01:12 38.52357 -81.11481 4664 ft 226 kts 260°
2026-04-22 01:13 38.52138 -81.13480 4420 ft 227 kts 260°
2026-04-22 01:13 38.51918 -81.15462 4168 ft 225 kts 259°
2026-04-22 01:13 38.51678 -81.17440 3924 ft 225 kts 258°
2026-04-22 01:13 38.51435 -81.19418 3687 ft 226 kts 259°
2026-04-22 01:14 38.51200 -81.21396 3441 ft 224 kts 259°
2026-04-22 01:14 38.50975 -81.23348 3295 ft 218 kts 259°
2026-04-22 01:14 38.50765 -81.25237 3178 ft 210 kts 259°
2026-04-22 01:14 38.50569 -81.27020 3067 ft 200 kts 259°
2026-04-22 01:15 38.50389 -81.28737 2987 ft 189 kts 260°
2026-04-22 01:15 38.50210 -81.30344 2980 ft 177 kts 259°
2026-04-22 01:15 38.50046 -81.31867 2999 ft 170 kts 258°
2026-04-22 01:15 38.49881 -81.33374 3001 ft 172 kts 258°
2026-04-22 01:16 38.49702 -81.34888 2951 ft 172 kts 258°
2026-04-22 01:16 38.49538 -81.36333 2947 ft 155 kts 259°
2026-04-22 01:16 38.49384 -81.37662 2934 ft 149 kts 259°
2026-04-22 01:16 38.49247 -81.38970 2946 ft 149 kts 261°
2026-04-22 01:17 38.49113 -81.40283 2959 ft 148 kts 259°
2026-04-22 01:17 38.48973 -81.41585 2939 ft 148 kts 258°
2026-04-22 01:17 38.48743 -81.42877 2923 ft 151 kts 241°
2026-04-22 01:17 38.48130 -81.43967 2940 ft 152 kts 233°
2026-04-22 01:18 38.47506 -81.45073 2917 ft 153 kts 235°
2026-04-22 01:18 38.46848 -81.46126 2922 ft 150 kts 230°
2026-04-22 01:18 38.46147 -81.47086 2935 ft 147 kts 229°
2026-04-22 01:18 38.45476 -81.48014 2966 ft 139 kts 230°
2026-04-22 01:19 38.44847 -81.48929 2821 ft 134 kts 229°
2026-04-22 01:19 38.44264 -81.49758 2609 ft 121 kts 229°
2026-04-22 01:19 38.43715 -81.50555 2490 ft 119 kts 230°
2026-04-22 01:19 38.43161 -81.51364 2385 ft 122 kts 229°
2026-04-22 01:20 38.42593 -81.52173 2220 ft 123 kts 229°
2026-04-22 01:20 38.42025 -81.52988 2058 ft 122 kts 229°
2026-04-22 01:20 38.41469 -81.53793 1927 ft 121 kts 229°
2026-04-22 01:20 38.40913 -81.54600 1791 ft 122 kts 228°
2026-04-22 01:21 38.40345 -81.55423 1552 ft 126 kts 230°
2026-04-22 01:21 38.39787 -81.56326 1345 ft 132 kts 230°
2026-04-22 01:21 38.39153 -81.57168 1155 ft 132 kts 228°
2026-04-22 01:21 38.38485 -81.58090 1083 ft 143 kts 226°
2026-04-22 01:22 38.37841 -81.58965 931 ft 125 kts 227°
2026-04-22 01:22 38.37409 -81.59550 949 ft 49 kts 227°
2026-04-22 01:22 38.37320 -81.59672 952 ft 7 kts 227°
2026-04-22 01:22 38.37285 -81.59718 954 ft 7 kts 227°
2026-04-22 01:23 38.37253 -81.59762 955 ft 7 kts 227°
2026-04-22 01:23 38.37221 -81.59806 956 ft 7 kts 228°
2026-04-22 01:23 38.37188 -81.59853 955 ft 7 kts 228°
2026-04-22 01:23 38.37151 -81.59904 956 ft 8 kts 228°
2026-04-22 01:24 38.37106 -81.59949 956 ft 8 kts 194°
2026-04-22 01:24 38.37053 -81.59906 951 ft 13 kts 99°
2026-04-22 01:24 38.37102 -81.59817 950 ft 13 kts 46°
2026-04-22 01:24 38.37164 -81.59734 951 ft 11 kts 46°
2026-04-22 01:25 38.37196 -81.59660 950 ft 10 kts 90°
2026-04-22 01:25 38.37163 -81.59602 951 ft 6 kts 161°
2026-04-22 01:25 38.37140 -81.59603 951 ft 3 kts 199°
2026-04-22 01:25 38.37124 -81.59611 951 ft 2 kts 198°
2026-04-22 01:26 38.37122 -81.59611 949 ft 0 kts 198°